Flag for United Arab Emirates Weather past 2 weeks in Sharjah, Sharjah, United Arab Emirates

Now
73 °F

Passing clouds.


Feels Like: 76 °F
Forecast: 68 / 77 °F
Wind: 5 mph from South

Location: Sharjah International Airport

Current Time: Dec 29, 2014 at 12:09:46 PM

Latest Report: Dec 29, 2014 at 11:00 AM


Visibility: 5 mi

Pressure: 30.07 "Hg

Humidity: 69%

Dew point: 63 °F

Location of SharjahLocation

Historic Weather in Sharjah — Graph

°F

Sharjah temperature yesterday

Maximum temperature yesterday: 77 °F (at 2:00 PM)
Minimum temperature yesterday: 57 °F (at 5:00 AM)
Average temperature yesterday: 67 °F

Past Weeks' High & Low Weather Summary

 TemperatureHumidityPressure
High84 °F (Dec 14, 2:00 PM)88% (Dec 23, 6:00 AM)30.21 "Hg (Dec 23, 6:00 AM)
Low37 °F (Dec 23, 9:00 PM)14% (Dec 14, 1:00 PM)29.92 "Hg (Dec 22, 3:00 PM)
Average69 °F60%30.09 "Hg
* Reported Dec 14 11:00 AM — Dec 29 11:00 AM, Sharjah, Weather by CustomWeather, © 2014

Note: Actual official high and low records may vary slightly from our data, if they occured in-between our weather recording intervals... More about our weather records

Advertising

Sharjah weather history for previous 24 hours

 ConditionsComfort  
Time TempWeatherWind HumidityBarometerVisibility
11:00 AM
Dec 29
73 °FPassing clouds.5 mph69%30.07 "Hg5 mi
10:00 AM70 °FPassing clouds.7 mph73%30.07 "Hg4 mi
9:00 AM66 °FHaze.6 mph78%30.07 "Hg3 mi
8:00 AM63 °FHaze.3 mph83%30.07 "Hg2 mi
7:00 AM61 °FHaze.3 mph88%30.04 "Hg2 mi
6:00 AM63 °FPassing clouds.5 mph83%30.04 "Hg4 mi
5:00 AM63 °FPassing clouds.5 mph83%30.04 "Hg4 mi
3:00 AM63 °FClear.5 mph83%30.04 "Hg4 mi
1:00 AM63 °FPassing clouds.5 mph83%30.07 "Hg4 mi
12:00 AM64 °FClear.3 mph73%30.07 "Hg5 mi
11:00 PM
Dec 28
64 °FClear.2 mph78%30.07 "Hg10 mi
10:00 PM66 °FClear.3 mph73%30.09 "Hg10 mi
9:00 PM68 °FClear.3 mph69%30.09 "Hg10 mi
8:00 PM72 °FClear.No wind65%30.07 "Hg10 mi
7:00 PM72 °FPassing clouds.5 mph65%30.07 "HgN/A
6:00 PM73 °FPassing clouds.9 mph61%30.07 "HgN/A
5:00 PM73 °FPassing clouds.9 mph57%30.04 "HgN/A
4:00 PM75 °FPassing clouds.12 mph57%30.04 "HgN/A
3:00 PM73 °FPassing clouds.10 mph57%30.04 "HgN/A
2:00 PM77 °FPassing clouds.8 mph47%30.04 "HgN/A
1:00 PM75 °FPassing clouds.7 mph50%30.07 "HgN/A
12:00 PM73 °FSunny.5 mph57%30.09 "Hg10 mi
Weather by CustomWeather, © 2014

See weather overviewHow to use our weather pages